Location: Chuathbaluk
(61.5726°N, 159.2454°W)
Time: 04:39:39
(UTC+00:00)

Transit 4A - Pass Details

Date: 30 November 2020
Orbit: 864 x 980 km, 66.8° (Epoch: 26 January)

Event Time Altitude Azimuth Distance (km) Brightness Sun altitude
Rises 23:42:30 0° 292° (WNW) 3,691 11.0 5.2°
Reaches altitude 10° 23:45:08 10° 296° (WNW) 2,743 10.3 5.1°
Maximum altitude 23:51:31 61° 17° (NNE) 1,103 8.2 4.8°
Drops below altitude 10° 23:57:49 10° 98° (E) 2,707 10.2 4.6°
Sets 00:00:23 0° 102° (ESE) 3,639 10.9 4.5°
